{"data":{"norad_id":43890,"intl_designator":"2018-111Q","name":"GRUS-1A","alt_names":[],"object_type":"PAYLOAD","status":"ACTIVE","operator":null,"country":"JPN","launch_date":"2018-12-27","launch_site_code":"VOSTO","launch_vehicle":null,"mission":null,"orbit_class":"UNKNOWN","rcs_meters":null,"size_class":null,"mass_kg":null,"dimensions":null,"purposes":[],"wikipedia_slug":null,"has_3d_model":false,"image_url":null,"decayed_at":null,"tle_current":{"epoch":"2026-09-20T04:05:33.016992Z","epoch_age_seconds":86839,"freshness":"FRESH","line1":"1 43890U 18111Q   26263.17052103  .00001278  00000+0  11043-3 0  9993","line2":"2 43890  97.4357 126.0074 0007415 180.9184 179.2027 14.98870457421939","mean_motion":14.98870457,"eccentricity":0.0007415,"inclination_deg":97.4357,"raan_deg":126.0074,"arg_perigee_deg":180.9184,"mean_anomaly_deg":179.2027,"bstar":0.00011043,"rev_number":42193,"period_min":96.072345230032,"perigee_km":565.23274535439,"apogee_km":575.53740359083,"semimajor_km":6948.5220744726,"source":"CELESTRAK","updated_at":"2026-09-20T09:00:14.415924Z"}}}